Volver al catálogo

MINOTAUR 4 R/B

ActivoLEO
NORAD 37228·ROCKET BODY·🇺🇸 United States

Lanzado Nov 20, 2010 desde Kodiak Launch Complex

Loading…

Próximos Pases (próximas 24 horas)

TLE

ObsoletoSource: Mike McCants

Época: Aug 27, 2026, 02:18 UTC

1 37228U 10062G   26239.09587947 0.00000600  00000-0  71351-4 0    02
2 37228  71.9694 350.5416 0015168 348.4365  11.5634 14.84270515    05

Sigue MINOTAUR 4 R/B en tiempo real con AllMySat

Download on the App Store